Location: Caderousse
(44.1025°N, 4.7568°E)
Time: 09:25:30
(UTC+00:00)

Daily predictions for brighter satellites

Satellite Brightness Start Highest point End
(mag) Time Altitude Azimuth Time Altitude Azimuth Time Altitude Azimuth
COSMOS 2428 3.7 17:26:44 10° SSE 17:31:16 25° ESE 17:35:48 10° NE
Cosmos 2333 4.3 17:27:15 10° S 17:32:45 60° ESE 17:38:19 10° NNE
Lacrosse 5 3.0 17:28:10 10° W 17:32:54 38° NNW 17:37:41 10° NE
Cosmos 1633 2.3 17:31:15 10° S 17:34:32 66° E 17:37:52 10° NNE
SL-4 R/B 2.4 17:36:00 10° NW 17:39:18 37° NNE 17:42:44 10° E
ADEOS 4.2 17:38:47 10° S 17:43:57 64° WSW 17:49:08 10° NNW
Atlas Centaur 2 4.3 17:40:24 10° SW 17:46:32 29° S 17:53:21 10° ESE
IRIDIUM 103 4.4 17:42:22 10° N 17:47:29 53° E 17:52:34 10° SSE
CZ-4 R/B 4.4 17:45:39 10° SSE 17:49:43 67° ENE 17:53:50 10° N
Okean O Rocket 2.8 17:49:22 10° ESE 17:52:40 21° ENE 17:56:00 10° NNE
Cosmos 2322 3.9 17:47:29 10° S 17:52:58 50° ESE 17:58:30 10° NE
Cosmos 1825 3.1 17:50:23 10° SSW 17:53:58 50° W 17:57:35 10° N
CZ-4 R/B 2.6 17:52:19 10° ESE 17:55:28 22° ENE 17:58:37 10° NNE
Radarsat Rocket 4.5 17:49:25 10° S 17:55:33 75° WSW 18:02:30 10° NNW
SKYMED 2 3.6 17:52:47 10° NNE 17:57:10 89° ESE 18:01:30 10° SSW
YAOGAN 1 3.0 17:53:27 10° SE 17:57:26 38° ENE 18:01:27 10° N
Cosmos 1745 Rocket 4.1 17:53:03 10° N 17:59:08 53° ENE 18:05:07 10° SSE
RESURS DK-1 3.8 17:57:43 10° NW 18:01:35 41° WSW 18:05:27 10° S
Okean 1-7 Rocket 4.1 17:57:52 10° SSE 18:01:56 37° E 18:06:04 10° NNE
Cosmos 2058 Rocket 3.0 17:59:55 10° N 18:04:22 85° E 18:08:49 10° S
IRIDIUM 106 4.3 18:00:34 10° N 18:05:48 78° E 18:11:01 10° S
Cosmos 1844 Rocket 4.1 18:01:07 10° NW 18:06:21 42° WSW 18:11:33 10° S
Cosmos 2058 4.2 18:04:07 10° SE 18:07:08 20° E 18:07:42 19° ENE
PAYLOAD B 4.2 18:02:23 10° SSE 18:07:49 66° ENE 18:13:17 10° N
Cosmos-2242 3.9 18:08:51 10° NNE 18:12:28 27° ENE 18:15:38 12° SE
Cosmos 1340 2.9 18:09:08 10° NNW 18:12:47 67° W 18:16:25 10° S
Cosmos 44 Rocket 3.7 18:08:23 10° SW 18:13:01 61° NW 18:17:47 10° NNE
USA 215 3.3 18:08:21 10° SE 18:14:54 89° NE 18:21:29 10° NW
Cosmos 1869 4.0 18:12:50 10° NNW 18:16:42 55° W 18:20:35 10° S
Cosmos 1709 Rocket 4.2 18:11:01 10° N 18:16:54 46° ENE 18:22:43 10° SSE
PSLV R/B 3.5 18:16:20 10° SSE 18:19:59 72° ENE 18:23:45 10° N
Cosmos 1553 Rocket 4.3 18:14:46 10° SSW 18:20:50 70° W 18:27:02 10° N
Cosmos 1417 Rocket 4.5 18:18:29 10° S 18:24:44 88° W 18:30:57 10° N
Spot 1 4.3 18:25:36 19° NE 18:28:07 39° E 18:31:58 10° S
CZ-4B R/B 3.1 18:23:12 10° SSE 18:28:32 69° ENE 18:34:00 10° N
Cosmos 2219 Rocket 2.5 18:25:39 10° SW 18:31:12 67° WNW 18:36:48 10° NNE
ATLAS 5 CENTAUR R/B 4.1 18:33:46 10° NNE 18:34:13 10° NNE 18:34:41 10° NNE
Cosmos 883 Rocket 4.5 18:28:05 10° S 18:34:16 64° E 18:40:32 10° NNE
DMSP B5D1-3 4.4 18:29:20 10° NNE 18:34:27 67° ESE 18:39:32 10° S
Cosmos 2360 Rocket 3.9 18:29:52 10° WSW 18:34:52 31° NW 18:39:54 10° N
Cosmos 1602 Rocket 3.5 18:32:08 10° S 18:36:20 57° E 18:40:35 10° NNE
BlueWalker 3 2.3 18:33:06 10° NW 18:36:52 45° NNE 18:37:33 41° ENE
Cosmos 1814 Rocket 4.0 18:35:21 10° NNW 18:40:44 86° WSW 18:46:05 10° SSE
Cosmos 1606 2.9 18:37:49 10° NNW 18:41:39 73° W 18:45:26 10° S
SJ-6B 4.1 18:44:58 26° NNE 18:44:58 26° NNE 18:47:08 10° N
SL-24 R/B - RUBIN 2 4.4 18:40:44 10° S 18:43:50 30° SE 18:43:50 30° SE
Lacrosse 5 rocket 3.9 18:43:27 10° W 18:45:53 17° SW 18:48:21 10° SSW
Cosmos 2237 Rocket 2.6 18:40:44 10° S 18:45:57 39° ESE 18:46:55 36° E
MOS 1-B 4.4 18:41:35 10° SSE 18:47:23 80° WSW 18:53:14 10° NNW
IGS 5A 3.5 18:46:58 49° E 18:47:26 53° ENE 18:51:28 10° N
Cosmos 1758 Rocket 3.4 18:46:53 10° S 18:51:11 72° E 18:55:34 10° NNE
Cosmos 2278 Rocket 2.2 18:46:17 10° NNW 18:51:53 56° ENE 18:53:55 37° ESE
NOSS 0 Rocket 3.9 18:46:03 10° S 18:52:11 62° ESE 18:56:15 22° NE
Cosmos 1356 Rocket 3.1 18:48:50 10° S 18:52:47 73° E 18:53:48 47° NNE
Cosmos 1812 Rocket 3.4 18:49:31 10° N 18:54:00 79° E 18:58:25 10° SSE
Cosmos 1980 3.8 18:51:32 10° S 18:56:57 50° ESE 18:58:04 44° ENE
BREEZE-M DEB (TANK) 3.5 18:56:00 10° WNW 18:59:56 83° SSW 19:04:17 31° ESE
CSL-04 Debris 4.2 18:58:39 41° ESE 19:00:10 55° ENE 19:05:25 10° N
Cosmos 2333 Rocket 3.9 18:55:58 10° WSW 19:00:54 30° NW 19:05:53 10° N
CSL-04 Rocket 3.7 19:01:25 49° E 19:01:51 50° ENE 19:07:05 10° N
Cosmos 2369 Rocket 4.4 19:01:32 10° NNE 19:01:37 10° NNE 19:01:37 10° NNE
Cosmos 1943 Rocket 3.3 19:03:15 10° N 19:06:56 27° NNE 19:06:56 27° NNE
Cosmos 968 Rocket 4.2 19:10:01 10° SW 19:15:05 52° WNW 19:20:14 10° NNE
COSMOS 2428 3.5 19:09:39 10° SW 19:15:09 51° WNW 19:20:23 12° NNE
Lacrosse 5 3.7 19:13:26 10° NW 19:17:09 20° N 19:18:14 18° N
SL-4 R/B 2.8 19:15:10 10° WNW 19:18:04 43° WSW 19:18:04 43° WSW
Cosmos 2208 Rocket 3.9 19:14:46 10° NNW 19:19:58 82° WSW 19:21:18 51° S
Meteor 2-2 Rocket 4.2 19:22:21 10° NNW 19:28:02 84° W 19:30:32 36° S
Okean O Rocket 2.8 19:24:34 10° S 19:28:43 41° W 19:32:56 10° NNW
CZ-4 R/B 3.1 19:26:31 10° SSW 19:30:11 32° W 19:33:50 10° NNW
Lacrosse 4 Rocket 4.0 19:28:08 10° N 19:28:37 12° N 19:28:37 12° N
Atlas Centaur 2 4.3 19:28:43 10° WSW 19:35:07 27° S 19:37:36 23° SSE
Cosmos 2058 4.5 19:39:52 10° SW 19:43:41 34° WNW 19:43:58 34° WNW
ATLAS 5 CENTAUR R/B 4.4 20:15:28 10° NNW 20:16:10 14° NNW 20:16:10 14° NNW
H-2A R/B 4.4 20:17:50 10° SW 21:02:17 - E 20:20:45 29° SSW
Cosmos 2237 Rocket 3.8 20:24:51 10° WSW 20:28:51 32° W 20:28:51 32° W
Cosmos 2278 Rocket 4.2 20:31:13 10° NW 20:35:31 23° W 20:35:51 22° WSW
Cosmos 1943 Rocket 4.4 20:46:46 10° NW 20:48:29 20° NW 20:48:29 20° NW
